Content
SEND FEEDBACK

Daily
Averages
Monthly
Summary
United States of America

STATEN ISLAND, NEW YORK


Home > North America > United States > New York
Elevation: 152 feet     Latitude: 40 35N     Longitude: 074 09W

WEATHER
 
SELECT A DAY
Number of Records: 189,442;   Date Range: 1/1/95 - 7/7/14
 
SHARE

PRINT THIS DATA

[ ← Previous Day ]
WEATHER ALMANAC - JULY 27, 2013
[ Next Day → ]
[ °C ]   °F
Weather ElementAverageHighLow
Temperature75.1 °F82.9 °F (2:51 pm)66.9 °F (2:51 am)
Dewpoint63.7 °F66 °F (7:51 am)60.1 °F (5:51 pm)
Humidity69.5 %90 % (2:51 am)50 % (4:51 pm)
Barometer30.02 in30.06 in (9:51 am)29.97 in (5:51 pm)
Wind Speed7.7 mph17.3 mph (6:51 pm)
Wind Gust23 mph (6:51 pm)
Weather ElementAverage
Visibility9.9 mi
Wind DirectionSSE (155.7 °)

Weather ElementTotal
Precipitation---
Cooling Degree Days9.9 (Base 65)
Growing Degree Days24.9 (Base 50)
Averaged from 23 records on July 27, 2013
WEATHER CONDITIONS BREAKOUT
WIND DIRECTION BREAKOUT
WEATHER BY HOUR - JULY 27, 2013
[ °C ]   °F
Local TimeTemperatureDewpointHumidityBarometerVisibilityWind DirectionWind SpeedGust SpeedPrecipitationEventsConditions
1:51 AM69.1 °F64.9 °F87 %30.05 in10.0 miSSW (200°)8.1 mphScattered Clouds
2:51 AM66.9 °F64.0 °F90 %30.04 in10.0 miSW (230°)8.1 mphScattered Clouds
3:51 AM68.0 °F64.0 °F87 %30.04 in10.0 miSW (230°)8.1 mphScattered Clouds
4:51 AM68.0 °F64.0 °F87 %30.04 in10.0 miWSW (250°)6.9 mphPartly Cloudy
5:51 AM66.9 °F64.0 °F90 %30.05 in10.0 miWSW (240°)3.5 mphScattered Clouds
6:51 AM69.1 °F64.9 °F87 %30.05 in9.0 miWSW (250°)4.6 mphScattered Clouds
7:51 AM71.1 °F66.0 °F84 %30.05 in9.0 miSSW (210°)5.8 mphMostly Cloudy
8:51 AM75.0 °F64.9 °F71 %30.05 in10.0 miSW (230°)5.8 mphMostly Cloudy
9:51 AM79.0 °F64.0 °F60 %30.06 in10.0 miVariable3.5 mphMostly Cloudy
10:51 AM80.1 °F62.1 °F54 %30.05 in10.0 miVariable6.9 mphMostly Cloudy
11:51 AM80.1 °F62.1 °F54 %30.05 in10.0 miSSW (210°)5.8 mph16.1 mphMostly Cloudy
12:51 PM81.0 °F64.0 °F56 %30.04 in10.0 miSSE (160°)6.9 mphMostly Cloudy
1:51 PM81.0 °F63.0 °F54 %30.02 in10.0 miSouth (170°)11.5 mph19.6 mphMostly Cloudy
2:51 PM82.9 °F64.0 °F53 %30.01 in10.0 miSE (140°)12.7 mph17.3 mphMostly Cloudy
3:51 PM82.0 °F62.1 °F51 %29.99 in10.0 miSE (130°)11.5 mph18.4 mphMostly Cloudy
4:51 PM81.0 °F61.0 °F50 %29.98 in10.0 miSE (130°)10.4 mph18.4 mphMostly Cloudy
5:51 PM79.0 °F60.1 °F52 %29.97 in10.0 miSE (140°)11.5 mph20.7 mphMostly Cloudy
6:51 PM78.1 °F61.0 °F56 %29.97 in10.0 miSSE (150°)17.3 mph23.0 mphMostly Cloudy
7:51 PM75.0 °F64.0 °F69 %29.99 in10.0 miSSE (150°)11.5 mph18.4 mphScattered Clouds
8:51 PM73.9 °F66.0 °F76 %30.00 in10.0 miSouth (180°)8.1 mphMostly Cloudy
9:51 PM73.0 °F64.9 °F76 %30.00 in10.0 miSouth (180°)4.6 mphMostly Cloudy
10:51 PM73.0 °F64.9 °F76 %29.99 in10.0 miVariable3.5 mphMostly Cloudy
11:51 PM73.0 °F66.0 °F79 %29.97 in10.0 miCalmMostly Cloudy
Hourly data recorded from KEWR, located miles away from Staten Island, New York







STORIES FROM OUR PARTNERS